sat.trackr.live / text

‹ back to catalog

ICEYE-X57

NORAD 64578 · 2025-135BC

PAYLOAD ACTIVE UNKNOWN

§ Identity

Operator
Country
US
Launch date
2025-06-23
Launch site
AFWTR
Launch vehicle
Mass (kg)
RCS (m²)

External: N2YO · Heavens-Above · Gunter

§ Orbital elements

Epoch: 2026-05-25T04:46:25.518144Z

Period
95.95 min
Inclination
97.7870°
Eccentricity
0.0001770
Mean motion
15.00857756 rev/d
Perigee alt
563.0 km
Apogee alt
565.5 km
Semi-major
6,942.4 km
B*
3.4549e-4
RAAN
261.6042°
Arg perigee
52.5774°
Mean anomaly
307.5611°
Rev number
5,057

§ Raw data

ICEYE-X571 64578U 25135BC  26145.19890646  .00004333  00000+0  34549-3 0  99972 64578  97.7870 261.6042 0001770  52.5774 307.5611 15.00857756 50570

JSON: /api/v1/satellites/64578 · /tle

For live sub-satellite position, see the globe view (requires WebGL).

§ Visibility from observer

Set your observer location to see the next 7 days of passes ≥ 10°. The values pass through the URL so the page stays shareable.

No JS? Fill the form by hand. The geolocation button needs JavaScript.

§ Radio — SatNOGS DB

ModeDescriptionDownlinkUplink
FM S-band telemetry 2.276 GHz

1 transmitter · refreshed weekly from db.satnogs.org